User: anonymous   Login
Location: Caltech
(34.1382°N, 118.1253°W)
Time: 23:39:04
(UTC-07:00)
Language:

ERBS - Orbit

View from above orbital plane
View from above orbital plane
View from above satellite
View from above satellite

Ground track
Ground track

The orbit data is extracted from the following two-line orbital elements,

1 15354U 84108B   16209.83256677  .00002125  00000-0  59705-4 0  9991
2 15354  57.0094  92.3848 0010197 179.7123 180.3938 15.41182097748152
Epoch (UTC): 27 July 2016 19:58:53
Eccentricity: 0.0010197
inclination: 57.0094°
perigee height: 435 km
apogee height: 449 km
right ascension of ascending node: 92.3848°
argument of perigee: 179.7123°
revolutions per day: 15.41182097
mean anomaly at epoch: 180.3938°
orbit number at epoch: 74815

The dashed part of the orbit path shows where the satellite is in the earth's shadow,  

DLR